QLK1427 YSSY-YSCB

Flight info

Callsign QLK1427
Flight time 0h 35m
Altitude 16000
Route SY3/34L WOL H65 LEECE
Aircraft DH8D/M-SDE2E3FGRY/H

Departure

Time 2026-05-04 11:27
Airport Sydney Kingsford Smith International Airport (YSSY)

Arrival

Time 2026-05-04 12:03
Airport Canberra Airport (YSCB)
Time Latitude Longitude Altitude Speed Heading
2026-05-04 10:44 -33.93304 151.17654 17 ft 0 kts 91°
2026-05-04 11:06 -33.93306 151.17659 17 ft 1 kts 105°
2026-05-04 11:06 -33.93318 151.17667 17 ft 3 kts 185°
2026-05-04 11:08 -33.93709 151.17676 10 ft 10 kts 163°
2026-05-04 11:10 -33.93882 151.17773 11 ft 9 kts 160°
2026-05-04 11:12 -33.94634 151.17912 27 ft 12 kts 167°
2026-05-04 11:12 -33.94717 151.17934 28 ft 11 kts 168°
2026-05-04 11:12 -33.94795 151.17953 29 ft 10 kts 168°
2026-05-04 11:12 -33.94871 151.17975 28 ft 12 kts 167°
2026-05-04 11:13 -33.94964 151.17998 27 ft 15 kts 168°
2026-05-04 11:13 -33.95068 151.18025 24 ft 14 kts 168°
2026-05-04 11:13 -33.95155 151.18045 20 ft 12 kts 182°
2026-05-04 11:13 -33.95200 151.17972 20 ft 9 kts 257°
2026-05-04 11:14 -33.95211 151.17909 20 ft 4 kts 257°
2026-05-04 11:14 -33.95213 151.17903 20 ft 0 kts 258°
2026-05-04 11:16 -33.95240 151.17750 19 ft 13 kts 258°
2026-05-04 11:16 -33.95264 151.17642 18 ft 13 kts 240°
2026-05-04 11:16 -33.95341 151.17584 16 ft 13 kts 182°
2026-05-04 11:17 -33.95444 151.17606 16 ft 19 kts 168°
2026-05-04 11:17 -33.95587 151.17644 16 ft 20 kts 168°
2026-05-04 11:19 -33.96401 151.17856 14 ft 15 kts 159°
2026-05-04 11:19 -33.96438 151.17909 16 ft 4 kts 99°
2026-05-04 11:19 -33.96439 151.17923 16 ft 0 kts 88°
2026-05-04 11:22 -33.96439 151.17925 16 ft 0 kts 86°
2026-05-04 11:24 -33.96439 151.17926 16 ft 0 kts 86°
2026-05-04 11:25 -33.96438 151.17928 16 ft 2 kts 86°
2026-05-04 11:26 -33.96411 151.18054 17 ft 5 kts 20°
2026-05-04 11:27 -33.92700 151.15950 1826 ft 159 kts 286°
2026-05-04 11:28 -33.92799 151.14616 2422 ft 174 kts 254°
2026-05-04 11:28 -33.93411 151.13240 2726 ft 201 kts 244°
2026-05-04 11:28 -33.94184 151.11748 2996 ft 218 kts 242°
2026-05-04 11:28 -33.95016 151.10207 3062 ft 216 kts 241°
2026-05-04 11:29 -33.95850 151.08720 3042 ft 215 kts 239°
2026-05-04 11:29 -33.96705 151.07240 2986 ft 215 kts 239°
2026-05-04 11:29 -33.97543 151.05748 2999 ft 212 kts 240°
2026-05-04 11:29 -33.98378 151.04289 2984 ft 211 kts 239°
2026-05-04 11:31 -34.07872 150.98535 6831 ft 232 kts 204°
2026-05-04 11:33 -34.17840 150.94476 11617 ft 224 kts 206°
2026-05-04 11:33 -34.19332 150.93875 12088 ft 226 kts 206°
2026-05-04 11:33 -34.20829 150.93274 12554 ft 227 kts 207°
2026-05-04 11:34 -34.22332 150.92668 12997 ft 229 kts 207°
2026-05-04 11:34 -34.23845 150.92059 13412 ft 231 kts 207°
2026-05-04 11:34 -34.25380 150.91443 13812 ft 234 kts 207°
2026-05-04 11:34 -34.26940 150.90814 14197 ft 236 kts 207°
2026-05-04 11:35 -34.28493 150.90192 14592 ft 237 kts 207°
2026-05-04 11:35 -34.30064 150.89560 14967 ft 238 kts 207°
2026-05-04 11:35 -34.31654 150.88921 15325 ft 241 kts 207°
2026-05-04 11:35 -34.33226 150.88287 15708 ft 242 kts 207°
2026-05-04 11:36 -34.34865 150.87624 15886 ft 254 kts 207°
2026-05-04 11:36 -34.36593 150.86920 15963 ft 270 kts 206°
2026-05-04 11:36 -34.38446 150.86168 15992 ft 288 kts 206°
2026-05-04 11:36 -34.40387 150.85385 15997 ft 305 kts 205°
2026-05-04 11:37 -34.42459 150.84552 16000 ft 321 kts 205°
2026-05-04 11:37 -34.44656 150.83672 15999 ft 335 kts 205°
2026-05-04 11:37 -34.46879 150.82783 15996 ft 346 kts 204°
2026-05-04 11:37 -34.49208 150.81853 15990 ft 354 kts 204°
2026-05-04 11:38 -34.51576 150.80905 16025 ft 360 kts 204°
2026-05-04 11:38 -34.53968 150.79935 16038 ft 363 kts 205°
2026-05-04 11:38 -34.56113 150.78450 16027 ft 350 kts 229°
2026-05-04 11:38 -34.57665 150.76242 16059 ft 343 kts 240°
2026-05-04 11:39 -34.59082 150.73918 16051 ft 345 kts 240°
2026-05-04 11:39 -34.60517 150.71545 16050 ft 347 kts 240°
2026-05-04 11:40 -34.69154 150.57207 16057 ft 353 kts 241°
2026-05-04 11:41 -34.70606 150.54790 16052 ft 353 kts 240°
2026-05-04 11:41 -34.72047 150.52393 16054 ft 353 kts 240°
2026-05-04 11:41 -34.73500 150.49971 16059 ft 353 kts 241°
2026-05-04 11:41 -34.74947 150.47557 16058 ft 354 kts 241°
2026-05-04 11:42 -34.76393 150.45143 16064 ft 353 kts 241°
2026-05-04 11:42 -34.77832 150.42741 16063 ft 354 kts 241°
2026-05-04 11:42 -34.79277 150.40326 16067 ft 354 kts 241°
2026-05-04 11:42 -34.80736 150.37885 16058 ft 354 kts 241°
2026-05-04 11:43 -34.82656 150.34671 16067 ft 353 kts 242°
2026-05-04 11:43 -34.83618 150.33058 16076 ft 354 kts 242°
2026-05-04 11:43 -34.85075 150.30621 16069 ft 354 kts 242°
2026-05-04 11:43 -34.86504 150.28218 16061 ft 354 kts 241°
2026-05-04 11:44 -34.87951 150.25790 16062 ft 354 kts 241°
2026-05-04 11:44 -34.89391 150.23373 16076 ft 353 kts 241°
2026-05-04 11:44 -34.90835 150.20947 16076 ft 353 kts 241°
2026-05-04 11:44 -34.92280 150.18517 16071 ft 353 kts 242°
2026-05-04 11:45 -34.93708 150.16110 16078 ft 353 kts 242°
2026-05-04 11:45 -34.95145 150.13689 16067 ft 354 kts 241°
2026-05-04 11:45 -34.96590 150.11255 16075 ft 353 kts 241°
2026-05-04 11:45 -34.98046 150.08801 16077 ft 353 kts 242°
2026-05-04 11:46 -34.99465 150.06404 16064 ft 354 kts 242°
2026-05-04 11:46 -35.01398 150.03136 16078 ft 355 kts 241°
2026-05-04 11:46 -35.02359 150.01511 16084 ft 355 kts 241°
2026-05-04 11:46 -35.03807 149.99065 16068 ft 348 kts 241°
2026-05-04 11:47 -35.05205 149.96727 15833 ft 343 kts 241°
2026-05-04 11:47 -35.06789 149.94450 15125 ft 363 kts 234°
2026-05-04 11:47 -35.08483 149.92281 15806 ft 340 kts 233°
2026-05-04 11:47 -35.10095 149.90286 16327 ft 331 kts 233°
2026-05-04 11:48 -35.11661 149.88353 17265 ft 305 kts 234°
2026-05-04 11:48 -35.13148 149.86478 17264 ft 317 kts 235°
2026-05-04 11:48 -35.14590 149.83691 17386 ft 282 kts 255°
2026-05-04 11:48 -35.15231 149.82274 17208 ft 295 kts 243°
2026-05-04 11:49 -35.16714 149.80437 16980 ft 309 kts 230°
2026-05-04 11:49 -35.18317 149.78667 16741 ft 311 kts 231°
2026-05-04 11:49 -35.20428 149.76241 16404 ft 311 kts 232°
2026-05-04 11:49 -35.21460 149.75023 16203 ft 309 kts 233°
2026-05-04 11:50 -35.22975 149.73207 15901 ft 302 kts 233°
2026-05-04 11:50 -35.24448 149.71410 15600 ft 296 kts 234°
2026-05-04 11:50 -35.25874 149.69640 15293 ft 291 kts 234°
2026-05-04 11:50 -35.27275 149.67879 14994 ft 287 kts 235°
2026-05-04 11:51 -35.28656 149.66127 14698 ft 283 kts 235°
2026-05-04 11:51 -35.30446 149.63838 14305 ft 279 kts 235°
2026-05-04 11:51 -35.31787 149.62114 14003 ft 276 kts 235°
2026-05-04 11:51 -35.32658 149.60988 13697 ft 280 kts 236°
2026-05-04 11:52 -35.34024 149.59229 13414 ft 283 kts 234°
2026-05-04 11:52 -35.35382 149.57504 13253 ft 282 kts 234°
2026-05-04 11:52 -35.36734 149.55777 13129 ft 277 kts 234°
2026-05-04 11:52 -35.38059 149.54082 12838 ft 277 kts 234°
2026-05-04 11:53 -35.39372 149.52390 12504 ft 276 kts 234°
2026-05-04 11:53 -35.40701 149.50674 12036 ft 276 kts 234°
2026-05-04 11:53 -35.42001 149.48985 11693 ft 274 kts 234°
2026-05-04 11:53 -35.43729 149.46741 11261 ft 271 kts 234°
2026-05-04 11:55 -35.52565 149.35202 8726 ft 257 kts 233°
2026-05-04 11:55 -35.53367 149.34154 8456 ft 254 kts 234°
2026-05-04 11:56 -35.54578 149.32561 8085 ft 249 kts 234°
2026-05-04 11:56 -35.55575 149.30193 7480 ft 230 kts 264°
2026-05-04 11:56 -35.55738 149.28922 7247 ft 226 kts 265°
2026-05-04 11:56 -35.55964 149.27016 6782 ft 225 kts 265°
2026-05-04 11:57 -35.56244 149.24585 6398 ft 210 kts 265°
2026-05-04 11:57 -35.56376 149.23404 6122 ft 205 kts 266°
2026-05-04 11:57 -35.56221 149.21727 5592 ft 199 kts 295°
2026-05-04 11:57 -35.54802 149.20326 4754 ft 211 kts 336°
2026-05-04 11:58 -35.53370 149.19885 4448 ft 212 kts 345°
2026-05-04 11:58 -35.52419 149.19681 4497 ft 198 kts 343°
2026-05-04 11:58 -35.51085 149.19397 4511 ft 191 kts 347°
2026-05-04 11:58 -35.49725 149.19365 4371 ft 197 kts 355°
2026-05-04 11:59 -35.48365 149.19383 4387 ft 194 kts 352°
2026-05-04 11:59 -35.47024 149.19360 4348 ft 193 kts 353°
2026-05-04 11:59 -35.45210 149.19363 4313 ft 193 kts 354°
2026-05-04 11:59 -35.44331 149.19367 4248 ft 189 kts 353°
2026-05-04 12:00 -35.42999 149.19362 4003 ft 191 kts 354°
2026-05-04 12:00 -35.41668 149.19365 3738 ft 193 kts 355°
2026-05-04 12:00 -35.40363 149.19368 3745 ft 179 kts 354°
2026-05-04 12:00 -35.39109 149.19367 3496 ft 183 kts 354°
2026-05-04 12:01 -35.37859 149.19371 3180 ft 174 kts 354°
2026-05-04 12:01 -35.36706 149.19383 2923 ft 158 kts 355°
2026-05-04 12:02 -35.30964 149.19440 1879 ft 111 kts
2026-05-04 12:03 -35.30367 149.19444 1879 ft 14 kts
2026-05-04 12:03 -35.30272 149.19444 1879 ft 26 kts 360°
2026-05-04 12:03 -35.30179 149.19385 1878 ft 19 kts 292°
2026-05-04 12:03 -35.30151 149.19284 1875 ft 11 kts 278°
2026-05-04 12:04 -35.30196 149.19240 1875 ft 11 kts 183°
2026-05-04 12:04 -35.30296 149.19241 1875 ft 15 kts 180°
2026-05-04 12:04 -35.30397 149.19238 1875 ft 12 kts 180°
2026-05-04 12:04 -35.30488 149.19238 1875 ft 13 kts 180°
2026-05-04 12:05 -35.30581 149.19238 1875 ft 11 kts 180°
2026-05-04 12:05 -35.30645 149.19191 1874 ft 9 kts 271°
2026-05-04 12:05 -35.30621 149.19135 1873 ft 3 kts 302°
2026-05-04 12:05 -35.30620 149.19133 1873 ft 0 kts 303°
2026-05-04 12:06 -35.30620 149.19132 1873 ft 0 kts 303°
2026-05-04 12:06 -35.30619 149.19132 1873 ft 0 kts 303°
2026-05-04 12:06 -35.30618 149.19127 1873 ft 1 kts 296°
2026-05-04 12:07 -35.30622 149.19095 1872 ft 6 kts 241°
2026-05-04 12:07 -35.30645 149.19064 1871 ft 3 kts 222°
2026-05-04 12:07 -35.30650 149.19060 1871 ft 0 kts 221°